START_TIME,STEP,MOV.,M15,t_acc.,M20,t_acc.
1979-07-23 06:00:43.470 ,0,1,0.,24.0,0.,24.0
1979-07-23 06:01:07.470 ,4,1,0.,24.0,0.,24.0
1979-07-23 06:01:31.470 ,7,1,0.,24.0,0.,24.0
1979-07-23 06:01:55.470 ,3,1,0.,24.0,0.,24.0
1979-07-23 06:02:19.470 ,0,1,0.,24.0,0.,24.0
1979-07-23 06:02:43.470 ,4,1,0.,24.0,0.,24.0
1979-07-23 06:03:07.470 ,7,1,0.,24.0,0.,24.0
1979-07-23 06:03:31.470 ,3,1,0.,24.0,0.,24.0
1979-07-23 06:03:55.470 ,0,1,0.,24.0,0.,24.0
1979-07-23 06:04:19.470 ,4,1,0.,24.0,0.,24.0
1979-07-23 06:04:43.470 ,7,1,0.,24.0,0.,24.0
1979-07-23 06:05:07.470 ,3,1,0.,24.0,0.,24.0
1979-07-23 06:05:31.470 ,0,1,0.,24.0,0.,24.0
1979-07-23 06:05:55.470 ,0,0,0.,24.0,0.,24.0
1979-07-23 06:06:19.470 ,0,0,0.,24.0,0.,24.0
1979-07-23 06:06:43.470 ,5,1,0.,24.0,0.,24.0
1979-07-23 06:07:07.470 ,5,0,0.,24.0,0.,24.0
1979-07-23 06:07:31.470 ,4,1,0.,24.0,0.,24.0
1979-07-23 06:07:55.470 ,4,0,0.,24.0,0.,24.0
1979-07-23 06:08:19.470 ,3,1,0.,24.0,0.,24.0
1979-07-23 06:08:43.470 ,3,0,0.,24.0,0.,24.0
1979-07-23 06:09:07.470 ,2,1,0.,24.0,0.,24.0
1979-07-23 06:09:31.470 ,2,0,0.,24.0,0.,24.0
1979-07-23 06:09:55.470 ,1,1,0.,24.0,0.,24.0
1979-07-23 06:10:19.470 ,1,0,0.,24.0,0.,24.0
1979-07-23 06:10:43.470 ,0,1,0.,24.0,0.,24.0
1979-07-23 06:11:07.470 ,0,0,0.,24.0,0.,24.0
1979-07-23 06:11:31.470 ,0,1,0.,24.0,0.,24.0
1979-07-23 06:11:55.470 ,0,0,0.,24.0,0.,24.0
1979-07-23 06:12:19.470 ,1,1,0.,24.0,0.,24.0
1979-07-23 06:12:43.470 ,1,0,0.,24.0,0.,24.0
1979-07-23 06:13:07.470 ,2,1,0.,24.0,0.,24.0
1979-07-23 06:13:31.470 ,2,0,0.,24.0,0.,24.0
1979-07-23 06:13:55.470 ,3,1,0.,24.0,0.,24.0
1979-07-23 06:14:19.470 ,3,0,0.,24.0,0.,24.0
1979-07-23 06:14:43.470 ,4,1,0.,24.0,0.,24.0
1979-07-23 06:15:07.470 ,4,0,0.,24.0,0.,24.0
1979-07-23 06:15:31.470 ,5,1,0.,24.0,0.,24.0
1979-07-23 06:15:55.470 ,5,0,0.,24.0,0.,24.0
1979-07-23 06:16:19.470 ,6,1,0.,24.0,0.,24.0
1979-07-23 06:16:43.470 ,6,0,0.,24.0,0.,24.0
1979-07-23 06:17:07.470 ,7,1,0.,24.0,0.,24.0
1979-07-23 06:17:31.470 ,7,0,0.,24.0,0.,24.0
1979-07-23 06:17:55.470 ,7,1,0.,24.0,0.,24.0
1979-07-23 06:18:19.470 ,7,0,0.,24.0,0.,24.0
1979-07-23 06:18:43.470 ,6,1,0.,24.0,0.,24.0
1979-07-23 06:19:07.470 ,6,0,0.,24.0,0.,24.0
1979-07-23 06:19:31.470 ,5,1,0.,24.0,0.,24.0
1979-07-23 06:19:55.470 ,5,0,0.,24.0,0.,24.0
1979-07-23 06:20:19.470 ,4,1,0.,24.0,0.,24.0
1979-07-23 06:20:43.470 ,4,0,0.,24.0,0.,24.0
1979-07-23 06:21:07.470 ,3,1,0.,24.0,0.,24.0
1979-07-23 06:21:31.470 ,3,0,0.,24.0,0.,24.0
1979-07-23 06:21:55.470 ,2,1,0.,24.0,0.,24.0
1979-07-23 06:22:19.470 ,2,0,0.,24.0,0.,24.0
1979-07-23 06:22:43.470 ,1,1,0.,24.0,0.,24.0
1979-07-23 06:23:07.470 ,1,0,0.,24.0,0.,24.0
1979-07-23 06:23:31.470 ,0,1,0.,24.0,0.,24.0
1979-07-23 06:23:55.470 ,0,0,0.,24.0,0.,24.0
1979-07-23 06:24:19.470 ,0,1,0.,24.0,0.,24.0
1979-07-23 06:24:43.470 ,0,0,0.,24.0,0.,24.0
1979-07-23 06:25:07.470 ,1,1,0.,24.0,0.,24.0
1979-07-23 06:25:31.470 ,1,0,0.,24.0,0.,24.0
1979-07-23 06:25:55.470 ,2,1,0.,24.0,0.,24.0
1979-07-23 06:26:19.470 ,2,0,0.,24.0,0.,24.0
1979-07-23 06:26:43.470 ,3,1,0.,24.0,0.,24.0
1979-07-23 06:27:07.470 ,3,0,0.,24.0,0.,24.0
1979-07-23 06:27:31.470 ,4,1,0.,24.0,0.,24.0
1979-07-23 06:27:55.470 ,4,0,0.,24.0,0.,24.0
1979-07-23 06:28:19.470 ,5,1,0.,24.0,0.,24.0
1979-07-23 06:28:43.470 ,5,0,0.,24.0,0.,24.0
1979-07-23 06:29:07.470 ,6,1,0.,24.0,0.,24.0
1979-07-23 06:29:31.470 ,6,0,0.,24.0,0.,24.0
1979-07-23 06:29:55.470 ,7,1,0.,24.0,0.,24.0
1979-07-23 06:30:19.470 ,7,0,0.,24.0,0.,24.0
1979-07-23 06:30:43.470 ,7,1,0.,24.0,0.,24.0
1979-07-23 06:31:07.470 ,7,0,0.,24.0,0.,24.0
1979-07-23 06:31:31.470 ,6,1,0.,24.0,0.,24.0
1979-07-23 06:31:55.470 ,6,0,0.,24.0,0.,24.0
1979-07-23 06:32:19.470 ,5,1,0.,24.0,0.,24.0
1979-07-23 06:32:43.470 ,5,0,0.,24.0,0.,24.0
1979-07-23 06:33:07.470 ,4,1,0.,24.0,0.,24.0
1979-07-23 06:33:31.470 ,4,0,0.,24.0,0.,24.0
1979-07-23 06:33:55.470 ,3,1,0.,24.0,0.,24.0
1979-07-23 06:34:19.470 ,3,0,0.,24.0,0.,24.0
1979-07-23 06:34:43.470 ,2,1,0.,24.0,0.,24.0
1979-07-23 06:35:07.470 ,2,0,0.,24.0,0.,24.0
1979-07-23 06:35:31.470 ,1,1,0.,24.0,0.,24.0
1979-07-23 06:35:55.470 ,1,0,0.,24.0,0.,24.0
1979-07-23 06:36:19.470 ,0,1,0.,24.0,0.,24.0
1979-07-23 06:36:43.470 ,0,0,0.,24.0,0.,24.0
1979-07-23 06:37:07.470 ,0,1,0.,24.0,0.,24.0
1979-07-23 06:37:31.470 ,0,0,0.,24.0,0.,24.0
1979-07-23 06:37:55.470 ,1,1,0.,24.0,0.,24.0
1979-07-23 06:38:19.470 ,1,0,0.,24.0,0.,24.0
1979-07-23 06:38:43.470 ,2,1,1.,24.0,0.,24.0
1979-07-23 06:39:07.470 ,2,0,0.,24.0,0.,24.0
1979-07-23 06:39:31.470 ,3,1,0.,24.0,0.,24.0
1979-07-23 06:39:55.470 ,3,0,0.,24.0,0.,24.0
1979-07-23 06:40:19.470 ,4,1,0.,24.0,0.,24.0
1979-07-23 06:40:43.470 ,4,0,0.,24.0,0.,24.0
1979-07-23 06:41:07.470 ,5,1,0.,24.0,0.,24.0
1979-07-23 06:41:31.470 ,5,0,0.,24.0,0.,24.0
1979-07-23 06:41:55.470 ,6,1,0.,24.0,0.,24.0
1979-07-23 06:42:19.470 ,6,0,0.,24.0,0.,24.0
1979-07-23 06:42:43.470 ,7,0,1.,24.0,0.,24.0
1979-07-23 06:43:07.470 ,0,0,,0,,0
1979-07-23 06:43:16.470 ,7,0,0.,24.0,0.,24.0
1979-07-23 06:43:31.470 ,3,1,0.,24.0,0.,24.0
1979-07-23 06:43:55.470 ,0,1,0.,24.0,0.,24.0
1979-07-23 06:44:19.470 ,4,1,0.,24.0,0.,24.0
1979-07-23 06:44:43.470 ,7,1,0.,24.0,0.,24.0
1979-07-23 06:45:07.470 ,3,1,0.,24.0,0.,24.0
1979-07-23 06:45:31.470 ,0,1,0.,24.0,0.,24.0
1979-07-23 06:45:55.470 ,4,1,0.,24.0,0.,24.0
1979-07-23 06:46:19.470 ,7,1,0.,24.0,0.,24.0
1979-07-23 06:46:43.470 ,3,1,0.,24.0,0.,24.0
1979-07-23 06:47:07.470 ,0,1,0.,24.0,0.,24.0
1979-07-23 06:47:31.470 ,4,1,0.,24.0,0.,24.0
1979-07-23 06:47:55.470 ,7,1,0.,24.0,0.,24.0
1979-07-23 06:48:19.470 ,3,1,0.,24.0,0.,24.0
1979-07-23 06:48:43.470 ,0,1,0.,24.0,0.,24.0
1979-07-23 06:49:07.470 ,4,1,0.,24.0,0.,24.0
1979-07-23 06:49:31.470 ,7,1,0.,24.0,0.,24.0
1979-07-23 06:49:55.470 ,3,1,0.,24.0,0.,24.0
1979-07-23 06:50:19.470 ,0,1,0.,24.0,0.,24.0
1979-07-23 06:50:43.470 ,4,1,0.,24.0,0.,24.0
1979-07-23 06:51:07.470 ,7,1,0.,24.0,0.,24.0
1979-07-23 06:51:31.470 ,3,1,0.,24.0,0.,24.0
1979-07-23 06:51:55.470 ,0,1,0.,24.0,0.,24.0
1979-07-23 06:52:19.470 ,4,1,0.,24.0,0.,24.0
1979-07-23 06:52:43.470 ,7,1,0.,24.0,0.,24.0
1979-07-23 06:53:07.470 ,3,1,0.,24.0,0.,24.0
1979-07-23 06:53:31.470 ,0,1,0.,24.0,0.,24.0
1979-07-23 06:53:55.470 ,0,0,0.,24.0,0.,24.0
1979-07-23 06:54:19.470 ,0,0,0.,24.0,0.,24.0
1979-07-23 06:54:43.470 ,5,1,0.,24.0,0.,24.0
1979-07-23 06:55:07.470 ,5,0,0.,24.0,0.,24.0
1979-07-23 06:55:31.470 ,4,1,0.,24.0,0.,24.0
1979-07-23 06:55:55.470 ,4,0,0.,24.0,0.,24.0
1979-07-23 06:56:19.470 ,3,1,0.,24.0,0.,24.0
1979-07-23 06:56:43.470 ,3,0,0.,24.0,0.,24.0
1979-07-23 06:57:07.470 ,2,1,0.,24.0,0.,24.0
1979-07-23 06:57:31.470 ,2,0,0.,24.0,0.,24.0
1979-07-23 06:57:55.470 ,1,1,0.,24.0,0.,24.0
1979-07-23 06:58:19.470 ,1,0,0.,24.0,0.,24.0
1979-07-23 06:58:43.470 ,0,1,0.,24.0,0.,24.0
1979-07-23 06:59:07.470 ,0,0,0.,24.0,0.,24.0
1979-07-23 06:59:31.470 ,0,1,0.,24.0,0.,24.0
1979-07-23 06:59:55.470 ,0,0,0.,24.0,0.,24.0
1979-07-23 07:00:19.470 ,1,1,0.,24.0,0.,24.0
1979-07-23 07:00:43.470 ,1,0,0.,24.0,0.,24.0
1979-07-23 07:01:07.470 ,2,1,0.,24.0,0.,24.0
1979-07-23 07:01:31.470 ,2,0,0.,24.0,0.,24.0
1979-07-23 07:01:55.470 ,3,1,0.,24.0,0.,24.0
1979-07-23 07:02:19.470 ,3,0,0.,24.0,0.,24.0
1979-07-23 07:02:43.470 ,4,1,0.,24.0,0.,24.0
1979-07-23 07:03:07.470 ,4,0,0.,24.0,0.,24.0
1979-07-23 07:03:31.470 ,5,1,0.,24.0,0.,24.0
1979-07-23 07:03:55.470 ,5,0,0.,24.0,0.,24.0
1979-07-23 07:04:19.470 ,6,1,0.,24.0,0.,24.0
1979-07-23 07:04:43.470 ,6,0,0.,24.0,0.,24.0
1979-07-23 07:05:07.470 ,7,1,0.,24.0,0.,24.0
1979-07-23 07:05:31.470 ,7,0,0.,24.0,0.,24.0
1979-07-23 07:05:55.470 ,7,1,0.,24.0,0.,24.0
1979-07-23 07:06:19.470 ,7,0,0.,24.0,0.,24.0
1979-07-23 07:06:43.470 ,6,1,0.,24.0,0.,24.0
1979-07-23 07:07:07.470 ,6,0,0.,24.0,0.,24.0
1979-07-23 07:07:31.470 ,5,1,0.,24.0,0.,24.0
1979-07-23 07:07:55.470 ,5,0,0.,24.0,0.,24.0
1979-07-23 07:08:19.470 ,4,1,0.,24.0,0.,24.0
1979-07-23 07:08:43.470 ,4,0,0.,24.0,0.,24.0
1979-07-23 07:09:07.470 ,3,1,0.,24.0,0.,24.0
1979-07-23 07:09:31.470 ,3,0,0.,24.0,0.,24.0
1979-07-23 07:09:55.470 ,2,1,0.,24.0,0.,24.0
1979-07-23 07:10:19.470 ,2,0,0.,24.0,0.,24.0
1979-07-23 07:10:43.470 ,1,1,0.,24.0,0.,24.0
1979-07-23 07:11:07.470 ,1,0,0.,24.0,0.,24.0
1979-07-23 07:11:31.470 ,0,1,0.,24.0,0.,24.0
1979-07-23 07:11:55.470 ,0,0,0.,24.0,0.,24.0
1979-07-23 07:12:19.470 ,0,1,0.,24.0,0.,24.0
1979-07-23 07:12:43.470 ,0,0,0.,24.0,0.,24.0
1979-07-23 07:13:07.470 ,1,1,0.,24.0,0.,24.0
1979-07-23 07:13:31.470 ,1,0,0.,24.0,0.,24.0
1979-07-23 07:13:55.470 ,2,1,0.,24.0,0.,24.0
1979-07-23 07:14:19.470 ,2,0,0.,24.0,0.,24.0
1979-07-23 07:14:43.470 ,3,1,0.,24.0,0.,24.0
1979-07-23 07:15:07.470 ,3,0,0.,24.0,0.,24.0
1979-07-23 07:15:31.470 ,4,1,0.,24.0,0.,24.0
1979-07-23 07:15:55.470 ,4,0,0.,24.0,0.,24.0
1979-07-23 07:16:19.470 ,5,1,0.,24.0,0.,24.0
1979-07-23 07:16:43.470 ,5,0,0.,24.0,0.,24.0
1979-07-23 07:17:07.470 ,6,1,0.,24.0,0.,24.0
1979-07-23 07:17:31.470 ,6,0,0.,24.0,0.,24.0
1979-07-23 07:17:55.470 ,7,1,0.,24.0,0.,24.0
1979-07-23 07:18:19.470 ,7,0,0.,24.0,0.,24.0
1979-07-23 07:18:43.470 ,7,1,0.,24.0,0.,24.0
1979-07-23 07:19:07.470 ,7,0,0.,24.0,0.,24.0
1979-07-23 07:19:31.470 ,6,1,0.,24.0,0.,24.0
1979-07-23 07:19:55.470 ,6,0,0.,24.0,0.,24.0
1979-07-23 07:20:19.470 ,5,1,0.,24.0,0.,24.0
1979-07-23 07:20:43.470 ,5,0,0.,24.0,0.,24.0
1979-07-23 07:21:07.470 ,4,1,0.,24.0,0.,24.0
1979-07-23 07:21:31.470 ,4,0,0.,24.0,0.,24.0
1979-07-23 07:21:55.470 ,3,1,0.,24.0,0.,24.0
1979-07-23 07:22:19.470 ,3,0,0.,24.0,0.,24.0
1979-07-23 07:22:43.470 ,2,1,0.,24.0,0.,24.0
1979-07-23 07:23:07.470 ,2,0,0.,24.0,0.,24.0
1979-07-23 07:23:31.470 ,1,1,0.,24.0,0.,24.0
1979-07-23 07:23:55.470 ,1,0,0.,24.0,0.,24.0
1979-07-23 07:24:19.470 ,0,1,0.,24.0,0.,24.0
1979-07-23 07:24:43.470 ,0,0,0.,24.0,0.,24.0
1979-07-23 07:25:07.470 ,0,1,0.,24.0,0.,24.0
1979-07-23 07:25:31.470 ,0,0,0.,24.0,0.,24.0
1979-07-23 07:25:55.470 ,1,1,0.,24.0,0.,24.0
1979-07-23 07:26:19.470 ,1,0,0.,24.0,0.,24.0
1979-07-23 07:26:43.470 ,2,1,0.,24.0,0.,24.0
1979-07-23 07:27:07.470 ,2,0,0.,24.0,0.,24.0
1979-07-23 07:27:31.470 ,3,1,0.,24.0,0.,24.0
1979-07-23 07:27:55.470 ,3,0,0.,24.0,0.,24.0
1979-07-23 07:28:19.470 ,4,1,0.,24.0,0.,24.0
1979-07-23 07:28:43.470 ,4,0,0.,24.0,0.,24.0
1979-07-23 07:29:07.470 ,5,1,0.,24.0,0.,24.0
1979-07-23 07:29:31.470 ,5,0,0.,24.0,0.,24.0
1979-07-23 07:29:55.470 ,6,1,0.,24.0,0.,24.0
1979-07-23 07:30:19.470 ,6,0,0.,24.0,0.,24.0
1979-07-23 07:30:43.470 ,7,0,0.,24.0,0.,24.0
1979-07-23 07:31:07.470 ,7,0,0.,24.0,0.,24.0
1979-07-23 07:31:31.470 ,3,1,0.,24.0,0.,24.0
1979-07-23 07:31:55.470 ,0,1,0.,24.0,0.,24.0
1979-07-23 07:32:19.470 ,4,1,0.,24.0,0.,24.0
1979-07-23 07:32:43.470 ,7,1,0.,24.0,0.,24.0
1979-07-23 07:33:07.470 ,3,1,0.,24.0,0.,24.0
1979-07-23 07:33:31.470 ,0,1,0.,24.0,0.,24.0
1979-07-23 07:33:55.470 ,4,1,0.,24.0,0.,24.0
1979-07-23 07:34:19.470 ,7,1,0.,24.0,0.,24.0
1979-07-23 07:34:43.470 ,3,1,0.,24.0,0.,24.0
1979-07-23 07:35:07.470 ,0,1,0.,24.0,0.,24.0
1979-07-23 07:35:31.470 ,4,1,0.,24.0,0.,24.0
1979-07-23 07:35:55.470 ,7,1,0.,24.0,0.,24.0
1979-07-23 07:36:19.470 ,3,1,0.,24.0,0.,24.0
1979-07-23 07:36:43.470 ,0,1,0.,24.0,0.,24.0
1979-07-23 07:37:07.470 ,4,1,0.,24.0,0.,24.0
1979-07-23 07:37:31.470 ,7,1,0.,24.0,0.,24.0
1979-07-23 07:37:55.470 ,3,1,0.,24.0,0.,24.0
1979-07-23 07:38:19.470 ,0,1,0.,24.0,0.,24.0
1979-07-23 07:38:43.470 ,4,1,0.,24.0,0.,24.0
1979-07-23 07:39:07.470 ,7,1,0.,24.0,0.,24.0
1979-07-23 07:39:31.470 ,3,1,0.,24.0,0.,24.0
1979-07-23 07:39:55.470 ,0,1,0.,24.0,0.,24.0
1979-07-23 07:40:19.470 ,4,1,0.,24.0,0.,24.0
1979-07-23 07:40:43.470 ,7,1,0.,24.0,0.,24.0
1979-07-23 07:41:07.470 ,3,1,0.,24.0,0.,24.0
1979-07-23 07:41:31.470 ,0,1,0.,24.0,0.,24.0
1979-07-23 07:41:55.470 ,0,0,0.,24.0,0.,24.0
1979-07-23 07:42:19.470 ,0,0,0.,24.0,0.,24.0
1979-07-23 07:42:43.470 ,5,1,0.,24.0,0.,24.0
1979-07-23 07:43:07.470 ,5,0,0.,24.0,0.,24.0
1979-07-23 07:43:31.470 ,4,1,0.,24.0,0.,24.0
1979-07-23 07:43:55.470 ,4,0,0.,24.0,0.,24.0
1979-07-23 07:44:19.470 ,3,1,0.,24.0,0.,24.0
1979-07-23 07:44:43.470 ,3,0,0.,24.0,0.,24.0
1979-07-23 07:45:07.470 ,2,1,0.,24.0,0.,24.0
1979-07-23 07:45:31.470 ,2,0,0.,24.0,0.,24.0
1979-07-23 07:45:55.470 ,1,1,0.,24.0,0.,24.0
1979-07-23 07:46:19.470 ,1,0,0.,24.0,0.,24.0
1979-07-23 07:46:43.470 ,0,1,0.,24.0,0.,24.0
1979-07-23 07:47:07.470 ,0,0,0.,24.0,0.,24.0
1979-07-23 07:47:31.470 ,0,1,0.,24.0,0.,24.0
1979-07-23 07:47:55.470 ,0,0,0.,24.0,0.,24.0
1979-07-23 07:48:19.470 ,1,1,0.,24.0,0.,24.0
1979-07-23 07:48:43.470 ,1,0,0.,24.0,0.,24.0
1979-07-23 07:49:07.470 ,2,1,0.,24.0,0.,24.0
1979-07-23 07:49:31.470 ,2,0,0.,24.0,0.,24.0
1979-07-23 07:49:55.470 ,3,1,0.,24.0,0.,24.0
1979-07-23 07:50:19.470 ,3,0,0.,24.0,0.,24.0
1979-07-23 07:50:43.470 ,4,1,0.,24.0,0.,24.0
1979-07-23 07:51:07.470 ,4,0,0.,24.0,0.,24.0
1979-07-23 07:51:31.470 ,5,1,0.,24.0,0.,24.0
1979-07-23 07:51:55.470 ,5,0,0.,24.0,0.,24.0
1979-07-23 07:52:19.470 ,6,1,0.,24.0,0.,24.0
1979-07-23 07:52:43.470 ,6,0,0.,24.0,0.,24.0
1979-07-23 07:53:07.470 ,7,1,0.,24.0,0.,24.0
1979-07-23 07:53:31.470 ,7,0,0.,24.0,0.,24.0
1979-07-23 07:53:55.470 ,7,1,0.,24.0,0.,24.0
1979-07-23 07:54:19.470 ,7,0,0.,24.0,0.,24.0
1979-07-23 07:54:43.470 ,6,1,0.,24.0,0.,24.0
1979-07-23 07:55:07.470 ,6,0,0.,24.0,0.,24.0
1979-07-23 07:55:31.470 ,5,1,0.,24.0,0.,24.0
1979-07-23 07:55:55.470 ,5,0,0.,24.0,0.,24.0
1979-07-23 07:56:19.470 ,4,1,0.,24.0,0.,24.0
1979-07-23 07:56:43.470 ,4,0,0.,24.0,0.,24.0
1979-07-23 07:57:07.470 ,3,1,0.,24.0,0.,24.0
1979-07-23 07:57:31.470 ,3,0,0.,24.0,0.,24.0
1979-07-23 07:57:55.470 ,2,1,0.,24.0,0.,24.0
1979-07-23 07:58:19.470 ,2,0,0.,24.0,0.,24.0
1979-07-23 07:58:43.470 ,1,1,0.,24.0,0.,24.0
1979-07-23 07:59:07.470 ,1,0,0.,24.0,0.,24.0
1979-07-23 07:59:31.470 ,0,1,0.,24.0,0.,24.0
1979-07-23 07:59:55.470 ,0,0,0.,24.0,0.,24.0
1979-07-23 08:00:19.470 ,0,1,0.,24.0,0.,24.0
1979-07-23 08:00:43.470 ,0,0,0.,24.0,0.,24.0
1979-07-23 08:01:07.470 ,1,1,0.,24.0,0.,24.0
1979-07-23 08:01:31.470 ,1,0,0.,24.0,0.,24.0
1979-07-23 08:01:55.470 ,2,1,0.,24.0,0.,24.0
1979-07-23 08:02:19.470 ,2,0,0.,24.0,0.,24.0
1979-07-23 08:02:43.470 ,3,1,0.,24.0,0.,24.0
1979-07-23 08:03:07.470 ,3,0,0.,24.0,0.,24.0
1979-07-23 08:03:31.470 ,4,1,0.,24.0,0.,24.0
1979-07-23 08:03:55.470 ,4,0,0.,24.0,0.,24.0
1979-07-23 08:04:19.470 ,5,1,0.,24.0,0.,24.0
1979-07-23 08:04:43.470 ,5,0,0.,24.0,0.,24.0
1979-07-23 08:05:07.470 ,6,1,0.,24.0,0.,24.0
1979-07-23 08:05:31.470 ,6,0,0.,24.0,0.,24.0
1979-07-23 08:05:55.470 ,7,1,0.,24.0,0.,24.0
1979-07-23 08:06:19.470 ,7,0,0.,24.0,0.,24.0
1979-07-23 08:06:43.470 ,7,1,0.,24.0,0.,24.0
1979-07-23 08:07:07.470 ,7,0,0.,24.0,0.,24.0
1979-07-23 08:07:31.470 ,6,1,0.,24.0,0.,24.0
1979-07-23 08:07:55.470 ,6,0,0.,24.0,0.,24.0
1979-07-23 08:08:19.470 ,5,1,0.,24.0,0.,24.0
1979-07-23 08:08:43.470 ,5,0,0.,24.0,0.,24.0
1979-07-23 08:09:07.470 ,4,1,0.,24.0,0.,24.0
1979-07-23 08:09:31.470 ,4,0,0.,24.0,0.,24.0
1979-07-23 08:09:55.470 ,3,1,0.,24.0,0.,24.0
1979-07-23 08:10:19.470 ,3,0,0.,24.0,0.,24.0
1979-07-23 08:10:43.470 ,2,1,0.,24.0,0.,24.0
1979-07-23 08:11:07.470 ,2,0,0.,24.0,0.,24.0
1979-07-23 08:11:31.470 ,1,1,0.,24.0,0.,24.0
1979-07-23 08:11:55.470 ,1,0,0.,24.0,0.,24.0
1979-07-23 08:12:19.470 ,0,1,0.,24.0,0.,24.0
1979-07-23 08:12:43.470 ,0,0,0.,24.0,0.,24.0
1979-07-23 08:13:07.470 ,0,1,0.,24.0,0.,24.0
1979-07-23 08:13:31.470 ,0,0,0.,24.0,0.,24.0
1979-07-23 08:13:55.470 ,1,1,0.,24.0,0.,24.0
1979-07-23 08:14:19.470 ,1,0,0.,24.0,0.,24.0
1979-07-23 08:14:43.470 ,2,1,0.,24.0,0.,24.0
1979-07-23 08:15:07.470 ,2,0,0.,24.0,0.,24.0
1979-07-23 08:15:31.470 ,3,1,0.,24.0,0.,24.0
1979-07-23 08:15:55.470 ,3,0,0.,24.0,0.,24.0
1979-07-23 08:16:19.470 ,4,1,0.,24.0,0.,24.0
1979-07-23 08:16:43.470 ,4,0,0.,24.0,0.,24.0
1979-07-23 08:17:07.470 ,5,1,0.,24.0,0.,24.0
1979-07-23 08:17:31.470 ,5,0,0.,24.0,0.,24.0
1979-07-23 08:17:55.470 ,0,0,8192.,24.0,12320768.,24.0
1979-07-23 08:18:19.470 ,0,0,0.,24.0,0.,24.0
1979-07-23 08:18:43.470 ,7,0,0.,24.0,0.,24.0
1979-07-23 08:19:07.470 ,7,0,0.,24.0,0.,24.0
1979-07-23 08:19:31.460 ,3,1,0.,24.0,0.,24.0
1979-07-23 08:19:55.460 ,0,1,0.,24.0,0.,24.0
1979-07-23 08:20:19.460 ,4,1,0.,24.0,0.,24.0
1979-07-23 08:20:43.460 ,7,1,0.,24.0,0.,24.0
1979-07-23 08:21:07.460 ,3,1,0.,24.0,0.,24.0
1979-07-23 08:21:31.460 ,0,1,0.,24.0,0.,24.0
1979-07-23 08:21:55.460 ,4,1,0.,24.0,0.,24.0
1979-07-23 08:22:19.460 ,7,1,0.,24.0,0.,24.0
1979-07-23 08:22:43.460 ,3,1,0.,24.0,0.,24.0
1979-07-23 08:23:07.460 ,0,0,,0,,0
1979-07-23 08:23:07.460 ,0,0,,0,,0
1979-07-23 08:23:31.460 ,0,0,0.,24.0,0.,24.0
1979-07-23 08:23:55.460 ,7,1,0.,24.0,0.,24.0
1979-07-23 08:24:19.460 ,3,1,0.,24.0,0.,24.0
1979-07-23 08:24:43.460 ,0,1,0.,24.0,0.,24.0
1979-07-23 08:25:07.460 ,4,1,0.,24.0,0.,24.0
1979-07-23 08:25:31.460 ,7,1,0.,24.0,0.,24.0
1979-07-23 08:25:55.460 ,3,1,0.,24.0,0.,24.0
1979-07-23 08:26:19.460 ,0,1,0.,24.0,0.,24.0
1979-07-23 08:26:43.460 ,4,1,0.,24.0,0.,24.0
1979-07-23 08:27:07.460 ,7,1,0.,24.0,0.,24.0
1979-07-23 08:27:31.460 ,3,1,0.,24.0,0.,24.0
1979-07-23 08:27:55.460 ,0,1,0.,24.0,0.,24.0
1979-07-23 08:28:19.460 ,4,1,0.,24.0,0.,24.0
1979-07-23 08:28:43.460 ,7,1,0.,24.0,0.,24.0
1979-07-23 08:29:07.460 ,3,1,0.,24.0,0.,24.0
1979-07-23 08:29:31.460 ,0,1,0.,24.0,0.,24.0
1979-07-23 08:29:55.460 ,0,0,0.,24.0,0.,24.0
1979-07-23 08:30:19.460 ,0,0,0.,24.0,0.,24.0
1979-07-23 08:30:43.460 ,5,1,0.,24.0,0.,24.0
1979-07-23 08:31:07.460 ,5,0,0.,24.0,0.,24.0
1979-07-23 08:31:31.460 ,4,1,0.,24.0,0.,24.0
1979-07-23 08:31:55.460 ,4,0,0.,24.0,0.,24.0
1979-07-23 08:32:19.460 ,3,1,0.,24.0,0.,24.0
1979-07-23 08:32:43.460 ,3,0,0.,24.0,0.,24.0
1979-07-23 08:33:07.460 ,2,1,0.,24.0,0.,24.0
1979-07-23 08:33:31.460 ,2,0,0.,24.0,0.,24.0
1979-07-23 08:33:55.460 ,1,1,0.,24.0,0.,24.0
1979-07-23 08:34:19.460 ,1,0,0.,24.0,0.,24.0
1979-07-23 08:34:43.460 ,0,1,0.,24.0,0.,24.0
1979-07-23 08:35:07.460 ,0,0,0.,24.0,0.,24.0
1979-07-23 08:35:31.460 ,0,1,0.,24.0,0.,24.0
1979-07-23 08:35:55.460 ,0,0,0.,24.0,0.,24.0
1979-07-23 08:36:19.460 ,1,1,0.,24.0,0.,24.0
1979-07-23 08:36:43.460 ,1,0,0.,24.0,0.,24.0
1979-07-23 08:37:07.460 ,2,1,0.,24.0,0.,24.0
1979-07-23 08:37:31.460 ,2,0,0.,24.0,0.,24.0
1979-07-23 08:37:55.460 ,3,1,0.,24.0,0.,24.0
1979-07-23 08:38:19.460 ,3,0,0.,24.0,0.,24.0
1979-07-23 08:38:43.460 ,4,1,0.,24.0,0.,24.0
1979-07-23 08:39:07.460 ,4,0,0.,24.0,0.,24.0
1979-07-23 08:39:31.460 ,5,1,0.,24.0,0.,24.0
1979-07-23 08:39:55.460 ,5,0,0.,24.0,0.,24.0
1979-07-23 08:40:19.460 ,6,1,0.,24.0,0.,24.0
1979-07-23 08:40:43.460 ,6,0,0.,24.0,0.,24.0
1979-07-23 08:41:07.460 ,7,1,0.,24.0,0.,24.0
1979-07-23 08:41:31.460 ,7,0,0.,24.0,0.,24.0
1979-07-23 08:41:55.460 ,7,1,0.,24.0,0.,24.0
1979-07-23 08:42:19.460 ,7,0,0.,24.0,0.,24.0
1979-07-23 08:42:43.460 ,6,1,0.,24.0,0.,24.0
1979-07-23 08:43:07.460 ,6,0,0.,24.0,0.,24.0
1979-07-23 08:43:31.460 ,5,1,0.,24.0,0.,24.0
1979-07-23 08:43:55.460 ,5,0,0.,24.0,0.,24.0
1979-07-23 08:44:19.460 ,4,1,0.,24.0,0.,24.0
1979-07-23 08:44:43.460 ,4,0,0.,24.0,0.,24.0
1979-07-23 08:45:07.460 ,3,1,0.,24.0,0.,24.0
1979-07-23 08:45:31.460 ,3,0,0.,24.0,0.,24.0
1979-07-23 08:45:55.460 ,2,1,0.,24.0,0.,24.0
1979-07-23 08:46:19.460 ,2,0,0.,24.0,0.,24.0
1979-07-23 08:46:43.460 ,1,1,0.,24.0,0.,24.0
1979-07-23 08:47:07.460 ,1,0,0.,24.0,0.,24.0
1979-07-23 08:47:31.460 ,0,1,0.,24.0,0.,24.0
1979-07-23 08:47:55.460 ,0,0,0.,24.0,0.,24.0
1979-07-23 08:48:19.460 ,0,1,0.,24.0,0.,24.0
1979-07-23 08:48:43.460 ,0,0,0.,24.0,0.,24.0
1979-07-23 08:49:07.460 ,1,1,0.,24.0,0.,24.0
1979-07-23 08:49:31.460 ,1,0,0.,24.0,0.,24.0
1979-07-23 08:49:55.460 ,2,1,0.,24.0,0.,24.0
1979-07-23 08:50:19.460 ,2,0,0.,24.0,0.,24.0
1979-07-23 08:50:43.460 ,3,1,0.,24.0,0.,24.0
1979-07-23 08:51:07.460 ,3,0,0.,24.0,0.,24.0
1979-07-23 08:51:31.460 ,4,1,0.,24.0,0.,24.0
1979-07-23 08:51:55.460 ,4,0,0.,24.0,0.,24.0
1979-07-23 08:52:19.460 ,5,1,0.,24.0,0.,24.0
1979-07-23 08:52:43.460 ,5,0,0.,24.0,0.,24.0
1979-07-23 08:53:07.460 ,6,1,0.,24.0,0.,24.0
1979-07-23 08:53:31.460 ,6,0,0.,24.0,0.,24.0
1979-07-23 08:53:55.460 ,7,1,0.,24.0,0.,24.0
1979-07-23 08:54:19.460 ,7,0,0.,24.0,0.,24.0
1979-07-23 08:54:43.460 ,7,1,0.,24.0,0.,24.0
1979-07-23 08:55:07.460 ,7,0,0.,24.0,0.,24.0
1979-07-23 08:55:31.460 ,6,1,0.,24.0,0.,24.0
1979-07-23 08:55:55.460 ,6,0,0.,24.0,0.,24.0
1979-07-23 08:56:19.460 ,5,1,0.,24.0,0.,24.0
1979-07-23 08:56:43.460 ,5,0,0.,24.0,0.,24.0
1979-07-23 08:57:07.460 ,4,1,0.,24.0,0.,24.0
1979-07-23 08:57:31.460 ,4,0,0.,24.0,0.,24.0
1979-07-23 08:57:55.460 ,0,0,,0,,0
1979-07-23 08:58:19.460 ,0,0,0.,24.0,0.,24.0
1979-07-23 08:58:43.460 ,2,1,0.,24.0,0.,24.0
1979-07-23 08:59:07.460 ,2,0,0.,24.0,0.,24.0
1979-07-23 08:59:31.460 ,1,1,0.,24.0,0.,24.0
1979-07-23 08:59:55.460 ,1,0,0.,24.0,0.,24.0
1979-07-23 09:00:19.460 ,0,1,0.,24.0,0.,24.0
